Dewpoint
23 22 22 22 21 21 21 21 21 22 23 24 25 25 26 26 25 25 26 25 25 25 25 25 27 27 25 25 25 24 23 24 21 20 23 24 25 25 27 30 32 32 35
24 23 23 22 21 20 21 21 22 21 23 25 25 26 27 25 25 26 26 26 24 25 25 26 26 28 26 26 26 25 23 23 23 19 22 20 23 25 29 29 31 33 36
23 21 21 21 20 20 20 21 21 22 22 25 25 26 25 25 26 27 27 25 23 24 27 26 27 27 25 25 26 23 23 25 25 23 20 25 21 22 29 26 29 30 34
22 21 21 20 21 21 20 21 22 22 23 24 26 25 25 25 25 27 27 23 22 23 27 26 26 26 26 27 27 26 26 25 25 23 22 23 15 21 19 25 26 27 30
22 22 21 22 22 21 21 22 22 23 25 25 26 25 24 23 23 27 26 22 22 22 23 26 26 28 30 29 29 27 26 25 23 22 21 19 17 13 23 26 26 27 33
22 23 22 23 22 22 22 23 22 23 23 24 24 23 21 19 27 29 25 21 22 22 22 24 26 28 29 30 30 30 29 28 26 24 23 21 22 14 25 28 27 29 30
22 23 23 23 22 21 21 21 20 21 22 21 21 21 19 20 25 29 26 22 22 23 22 25 26 26 28 29 29 29 28 29 29 28 25 24 23 24 23 27 27 29 32
21 22 23 23 20 19 18 17 18 19 19 20 20 20 19 18 25 29 27 23 23 23 24 26 26 28 28 30 28 27 28 29 30 30 29 29 30 30 30 30 30 32 33
21 23 22 20 17 16 15 15 15 17 17 18 17 18 18 18 24 29 27 22 21 21 23 26 27 27 29 30 28 26 27 29 32 34 34 35 35 35 34 33 30 30 31
22 22 19 17 15 14 12 12 13 14 15 16 16 17 20 18 24 28 27 23 22 21 21 22 26 28 30 30 28 27 26 27 29 30 31 34 34 34 33 33 33 30 31
24 23 17 9 9 9 10 11 12 13 14 15 15 17 18 20 23 25 26 23 25 21 21 22 24 29 29 29 29 28 28 29 29 30 31 32 32 33 33 33 33 33 30
22 20 15 12 9 9 10 10 12 13 14 14 15 17 18 20 25 25 25 24 24 23 23 24 25 28 28 28 28 29 29 29 29 29 30 30 31 32 32 32 33 34 34
19 20 17 16 14 14 12 11 11 12 14 15 17 17 18 21 23 25 25 24 23 22 24 24 24 25 26 25 27 28 27 27 28 27 28 30 31 32 33 33 33 33 33
21 19 16 15 17 18 19 16 12 13 15 17 18 18 18 20 21 22 22 22 23 22 22 21 21 23 22 23 24 25 27 27 28 27 28 30 32 32 32 32 32 32 31
20 19 18 20 19 19 20 20 18 15 19 19 18 19 16 19 20 21 21 20 20 21 20 19 18 19 19 19 21 23 25 26 26 28 28 29 30 30 30 32 32 32 30
17 18 19 20 19 19 19 19 22 20 21 22 22 20 16 21 20 19 19 19 20 19 17 16 15 16 16 17 18 19 22 23 26 28 29 29 29 29 29 30 31 30 29
16 17 18 17 17 16 17 15 14 16 19 20 21 21 21 20 19 19 17 16 17 17 14 14 14 14 15 16 17 18 19 23 27 27 28 29 30 29 29 28 28 29 28
18 21 15 14 16 16 16 19 18 15 14 16 20 19 20 19 19 18 17 14 11 13 14 13 13 14 14 15 16 17 19 22 25 26 27 29 29 29 28 27 27 26 28
13 12 13 14 15 15 16 16 16 16 17 17 18 18 17 19 18 18 17 13 12 11 12 12 14 14 15 15 16 17 18 21 23 24 26 28 29 27 27 27 27 26 25
15 17 16 15 15 15 16 16 17 17 17 18 18 17 17 15 15 14 15 12 12 11 11 11 13 13 14 15 16 17 18 19 21 23 24 26 28 29 28 27 28 27 27
14 15 15 16 16 17 17 17 19 19 19 18 18 16 14 16 15 15 14 14 13 12 11 10 11 12 13 14 15 16 17 19 20 21 23 24 26 28 28 28 27 28 27
17 17 18 16 16 18 16 19 20 21 20 19 18 19 11 15 14 14 14 10 9 13 11 10 9 11 12 12 14 15 16 18 19 20 22 23 24 25 27 27 27 28 27
17 17 14 14 19 16 18 15 19 20 20 19 17 16 15 11 11 11 11 7 11 9 9 7 7 9 11 12 14 15 15 16 18 20 21 22 22 23 24 25 25 25 25
18 18 17 20 20 20 17 15 18 17 18 18 13 14 11 9 3 3 3 3 6 5 5 3 5 5 8 10 12 13 14 17 18 20 20 22 22 22 22 22 23 22 23
20 21 19 18 18 14 11 17 16 15 17 16 14 13 14 10 11 2 -3 -2 0 1 4 4 1 3 5 7 8 10 11 14 14 16 19 20 20 21 23 22 22 21 21
21 22 20 19 16 13 14 11 12 12 16 16 13 9 8 9 9 1 2 -1 -2 0 4 1 3 1 3 7 7 10 9 11 13 14 16 18 18 18 19 19 20 20 21
Lifted_Index
18 19 20 20 20 20 20 20 20 19 18 18 17 16 15 13 12 12 11 12 12 12 12 12 12 13 13 13 13 13 12 12 11 11 12 14 14 15 15 16 16 17 17
18 19 20 20 20 20 20 20 19 18 18 17 17 16 14 13 12 12 12 12 12 12 12 12 13 13 13 13 13 13 12 12 11 11 12 14 15 15 15 15 16 17 17
19 19 19 19 19 19 19 19 18 18 17 17 16 15 14 13 13 12 12 12 12 12 12 13 13 13 13 13 13 13 12 12 12 12 12 14 15 15 15 15 16 16 16
19 19 19 19 19 19 19 18 18 17 17 17 16 15 14 14 13 12 12 12 12 13 13 13 13 13 13 13 13 13 12 11 12 12 13 14 15 15 15 15 16 16 16
19 19 19 19 19 19 18 18 17 17 17 16 16 15 14 14 13 13 12 12 12 13 13 14 14 14 13 13 13 12 12 11 11 12 13 14 14 15 15 16 15 15 15
19 19 19 19 19 19 18 17 17 17 17 17 16 15 14 13 13 13 13 13 13 13 13 14 14 14 13 13 12 12 11 10 11 11 12 14 14 15 16 15 15 15 15
19 19 19 19 19 18 18 17 17 17 17 17 16 14 13 12 12 13 13 13 13 13 14 14 14 14 13 12 12 11 10 10 10 11 13 14 15 15 16 15 15 15 15
19 18 18 18 18 18 17 17 17 17 17 17 15 13 12 12 12 13 13 13 13 13 14 14 14 14 13 12 11 10 9 9 10 11 13 14 15 15 15 15 15 15 15
18 18 18 18 18 17 17 17 17 17 17 16 14 12 11 11 12 13 13 12 12 13 13 14 14 14 13 12 11 9 9 9 10 11 13 14 15 15 15 15 15 14 14
18 18 18 18 18 17 17 17 17 17 17 16 14 13 12 12 12 13 13 12 12 12 13 14 14 13 13 12 10 9 8 9 10 11 13 14 14 15 15 15 15 14 14
18 18 18 18 17 17 17 17 17 17 16 16 14 13 12 12 12 13 13 12 12 12 13 13 14 13 12 11 10 9 8 9 10 11 13 14 14 14 14 15 15 15 14
17 17 17 17 17 17 17 16 16 16 16 15 14 14 13 12 13 13 13 13 13 13 13 14 14 13 12 11 10 9 8 9 10 11 12 13 14 14 14 14 15 15 15
16 16 16 16 16 16 16 16 15 15 15 14 14 14 13 13 13 13 13 13 13 13 14 14 14 13 12 11 10 9 9 10 11 12 12 13 14 14 14 14 14 14 14
16 15 16 16 16 16 16 15 15 15 14 14 14 14 14 13 13 13 13 13 13 13 14 14 14 13 12 11 11 10 10 11 11 12 12 13 14 14 14 14 14 13 13
15 15 15 15 15 15 15 15 15 15 15 15 15 15 14 14 15 14 14 13 13 13 13 13 13 13 12 12 11 11 11 12 12 12 13 13 13 14 14 14 13 13 12
15 15 15 15 15 14 14 15 15 16 16 16 16 16 16 16 16 16 15 14 13 12 12 12 12 13 12 12 12 12 12 12 13 13 13 13 13 13 14 14 13 13 12
14 14 14 14 14 14 14 14 14 15 15 16 16 16 16 17 16 16 15 14 13 12 11 11 12 13 13 13 13 13 13 13 13 13 13 13 13 13 13 14 13 13 12
14 14 14 14 14 14 14 14 14 14 14 15 16 16 16 16 16 16 16 15 13 12 12 11 12 13 13 13 13 13 13 13 13 14 14 14 14 13 13 13 13 13 13
13 14 14 14 14 14 14 14 14 14 14 15 15 16 16 16 16 16 15 15 14 13 13 13 13 13 13 13 13 13 13 13 13 14 14 14 14 14 14 14 14 13 13
13 13 14 14 14 14 14 14 14 14 14 15 15 15 15 15 15 14 15 15 15 14 14 14 14 14 13 13 13 13 13 13 14 14 14 15 15 14 14 14 14 14 14
13 13 13 13 13 13 14 14 14 14 14 14 15 15 16 15 14 14 14 15 15 15 15 15 15 15 14 14 13 13 13 13 14 14 14 15 15 15 15 15 14 14 14
13 13 13 13 13 13 13 13 13 14 14 14 15 15 16 15 15 15 15 15 16 16 16 16 16 16 15 15 14 14 13 13 14 14 14 15 15 15 15 15 15 15 15
13 13 13 12 13 13 13 13 13 13 14 14 14 15 15 15 15 15 15 15 16 16 17 16 16 16 16 16 16 15 15 15 15 15 15 15 15 15 15 15 15 15 15
12 12 12 12 12 12 13 13 13 13 13 14 14 15 15 15 15 16 16 16 16 16 16 17 16 16 16 16 16 16 16 16 16 16 16 15 15 15 15 15 15 15 15
12 12 12 12 12 12 12 12 12 13 13 13 14 14 15 15 15 16 16 16 16 16 16 16 16 16 16 16 16 17 17 17 17 17 16 16 15 15 15 15 15 15 15
12 12 12 12 12 12 12 12 12 12 13 13 14 14 15 15 15 16 16 16 16 16 16 16 16 16 16 16 17 17 17 17 17 17 17 16 16 15 15 15 15 15 15